sat.trackr.live / text

‹ back to catalog

STARLINK-1972

NORAD 47627 · 2021-012H

PAYLOAD ACTIVE UNKNOWN

§ Identity

Operator
Country
US
Launch date
2021-02-16
Launch site
AFETR
Launch vehicle
Mass (kg)
RCS (m²)

Purposes: comms

External: N2YO · Heavens-Above · Gunter

§ Orbital elements

Epoch: 2026-05-25T04:45:17.929152Z

Period
92.31 min
Inclination
53.0480°
Eccentricity
0.0002980
Mean motion
15.60006537 rev/d
Perigee alt
385.6 km
Apogee alt
389.7 km
Semi-major
6,765.8 km
B*
1.1940e-3
RAAN
315.4567°
Arg perigee
166.5288°
Mean anomaly
193.5804°
Rev number
29,335

§ Raw data

STARLINK-19721 47627U 21012H   26145.19812418  .00099024  00000+0  11940-2 0  99942 47627  53.0480 315.4567 0002980 166.5288 193.5804 15.60006537293359

JSON: /api/v1/satellites/47627 · /tle

For live sub-satellite position, see the globe view (requires WebGL).

§ Visibility from observer

Set your observer location to see the next 7 days of passes ≥ 10°. The values pass through the URL so the page stays shareable.

No JS? Fill the form by hand. The geolocation button needs JavaScript.